Zurück zum Katalog

STARLINK-32688

AktivKommunikationVLEO
NORAD 62193·PAYLOAD·🇺🇸 United States

Gestartet Dec 4, 2024 von Cape Canaveral Space Force Station

Loading…

Nächste Überflüge (nächste 24 Stunden)

TLE

AktuellSource: CelesTrak SupGP

Epoche: Sep 15, 2026, 02:41 UTC

1 62193C 24229B   26258.11229167  .00004893  00000+0  17725-3 0  2588
2 62193  43.0016 281.0250 0001606 265.6243 336.4741 15.27572785    14

Verfolge STARLINK-32688 in Echtzeit mit AllMySat

Download on the App Store